map of GRS home
Great Circle Mapper logo
GRS - Airport
Location
City:  Grosseto, Tuscany, Italy
ICAO:LIRS
IATA:GRS

Details
Type:Airport (Aerodrome, Airfield)
Use:Public/Civil, Military, International (customs port of entry)
Latitude:4245'35"N (42.759747)
Longitude:1104'19"E (11.071897)
Datum:WGS 1984
Elevation:15 ft (5 m)
Variation:2.67E (WMM2015 magnetic declination)
0.11 annual change
Runways:2
Longest:9823 × 148 ft (2994 × 45 m), paved

Time
Time Zone:UTC+1 (DST+2)
Local Time:

Weather
METAR:LIRS 310055Z 05005KT 9999 FEW025 23/20 Q1017 RMK BKN BKN120 VIS MIN 9999 WIND THR03 05006KT WIND THR021 04006KT BLU

Related Locations
Nearby:
Farthest:CHT: 12054 mi / 19399 km
Waitangi [Tuuta], Chatham Islands, NZ

Find:

   beyond  
but within

Other Information
Maps:
NOTAMs:
Links:
Sources:

  
flag of Italy
flag of Tuscany
  

Sectional Chart

Flight Planning
at skyvector.com

Satellite Image

Google Maps Satellite view

 

Copyright © 2004-2016 Karl L. Swartz. All rights reserved.
The Great Circle Mapper name and logo are trademarks of the Great Circle Mapper.
All other trademarks mentioned herein belong to their respective owners.
Please see credits for attibutions and further copyright information.

  Follow gcmap on Facebook Follow gcmap on Twitter Follow gcmap on Google+ GCmap on LinkedIn

hCard Microformat

Geo Microformat